Location: Góry Miechowskie
(50.3599°N, 20.1803°E)
Time: 15:47:36
(UTC+00:00)

CZ-2D R/B - Visible Passes

Search period start: 08 September 2024 00:00
Search period end: 18 September 2024 00:00
Orbit: 790 x 842 km, 98.8° (Epoch: 07 September)

Date Brightness Start Highest point End Pass type
(mag) Time Alt. Az. Time Alt. Az. Time Alt. Az.
08 Sep 2.0 01:03:36 10° NNE 01:09:06 87° WNW 01:09:53 67° SSW visible
08 Sep 3.8 02:44:46 10° NNW 02:48:22 18° NW 02:51:09 13° W visible
08 Sep 4.7 23:04:53 10° ENE 23:06:14 11° E 23:06:26 11° E visible
09 Sep 2.3 00:41:49 10° NNE 00:47:17 66° ESE 00:47:43 63° SE visible
09 Sep 3.4 02:22:30 10° N 02:26:52 25° WNW 02:28:59 20° W visible
10 Sep 2.9 00:20:09 10° NNE 00:25:23 44° E 00:25:33 44° ESE visible
10 Sep 3.0 02:00:23 10° N 02:05:17 35° WNW 02:06:49 29° W visible
10 Sep 3.5 23:58:37 10° NNE 00:03:23 31° E 00:03:23 31° E visible
11 Sep 2.5 01:38:22 10° N 01:43:38 49° WNW 01:44:39 43° W visible
11 Sep 4.2 03:21:02 10° NNW 03:22:25 11° NW 03:23:48 10° WNW visible
11 Sep 4.1 23:37:18 10° NE 23:41:13 21° E 23:41:13 21° E visible
12 Sep 2.1 01:16:26 10° NNE 01:21:54 71° WNW 01:22:29 65° WSW visible
12 Sep 4.0 02:57:58 10° NNW 03:01:00 15° NW 03:03:45 11° W visible
12 Sep 4.5 23:16:26 10° NE 23:19:02 14° E 23:19:02 14° E visible
13 Sep 2.1 00:54:36 10° NNE 01:00:07 81° ESE 01:00:18 80° SE visible
13 Sep 3.7 02:35:33 10° N 02:39:31 21° NW 02:41:35 17° W visible
14 Sep 2.6 00:32:51 10° NNE 00:38:07 56° E 00:38:07 56° E visible
14 Sep 3.2 02:13:21 10° N 02:17:58 29° WNW 02:19:24 25° W visible
15 Sep 3.3 00:11:13 10° NNE 00:15:57 37° E 00:15:57 37° E visible
15 Sep 2.7 01:51:16 10° N 01:56:21 40° WNW 01:57:13 37° W visible
15 Sep 3.9 23:49:46 10° NE 23:53:46 26° E 23:53:46 26° E visible
16 Sep 2.3 01:29:18 10° N 01:34:40 57° WNW 01:35:03 56° W visible
16 Sep 4.1 03:11:19 10° NNW 03:13:34 13° NW 03:15:50 10° WNW visible
16 Sep 4.3 23:28:36 10° NE 23:31:35 17° E 23:31:35 17° E visible
17 Sep 2.1 01:07:23 10° NNE 01:12:52 82° WNW 01:12:52 82° WNW visible
17 Sep 3.8 02:48:38 10° NNW 02:52:07 17° NW 02:54:08 15° WNW visible
17 Sep 4.7 23:08:12 10° ENE 23:09:24 11° ENE 23:09:24 11° ENE visible
